[[{"header":{"parameterUnit":"m.s-1","parameterCategory":2,"la1":30.2991,"la2":30.254,"lo1":-89.0895,"lo2":-89.0444,"dy":0.0017,"dx":0.0017,"nx":28,"ny":28,"refTime":"2024-03-03T03:00:00:Z","depth":"0","parameterNumber":2,"parameterNumberName":"U-component_of_CURRENTS"},"data":[0,0,0,0,0,0,0,0,0,0,0,0,0,0,0,0,0,0,0,0,0,0,0,0,0,0,0,0,0,0,0,0,0,0,0,0,0,0,0,0,0,0,0,0,0,0,0,0,0,0,0,0,0,0,0,0,0,0,-0.2324,-0.2325,0,-0.2333,-0.2333,-0.2333,-0.2322,-0.2321,-0.2321,-0.2321,-0.2299,-0.2298,-0.2298,0,0,0,0,0,0,0,0,0,0,0,0,0,-0.2286,-0.2287,-0.2324,-0.2325,-0.2325,-0.2333,-0.2333,-0.2333,-0.2322,-0.2321,-0.2321,-0.2321,-0.2299,-0.2298,-0.2298,0,0,0,0,0,0,0,0,0,0,0,0,0,-0.2298,-0.2287,-0.2324,-0.2322,-0.2322,-0.2333,-0.2333,-0.2333,-0.2322,-0.2321,-0.2321,-0.2321,-0.2299,-0.2298,-0.2298,-0.23,0,0,-0.2296,-0.2295,0,0,0,0,0,0,0,0,-0.2297,-0.2299,-0.2322,-0.2322,-0.2322,-0.2328,-0.2311,-0.2321,-0.2322,-0.232,-0.2321,-0.2321,-0.2307,-0.2306,-0.2305,-0.2299,-0.2298,-0.2296,-0.2295,-0.2295,-0.2295,0,0,0,0,0,0,0,-0.2296,-0.2298,-0.2325,-0.2322,-0.2323,-0.2317,-0.2318,-0.2313,-0.2313,-0.232,-0.232,-0.2324,-0.2307,-0.2306,-0.2305,-0.2298,-0.2296,-0.2295,-0.2295,-0.2295,-0.228,-0.228,0,0,0,0,0,0,-0.2301,-0.2298,-0.2325,-0.2326,-0.2311,-0.2318,-0.2319,-0.2325,-0.2313,-0.2312,-0.2324,-0.2323,-0.2307,-0.2306,-0.2304,-0.2306,-0.2295,-0.2294,-0.2294,-0.228,-0.228,-0.228,0,0,0,0,0,0,-0.23,-0.2303,-0.2325,-0.2314,-0.2316,-0.2319,-0.2325,-0.2325,-0.2324,-0.2318,-0.2315,-0.2324,-0.2307,-0.2305,-0.2299,-0.2305,-0.2294,-0.2294,-0.228,-0.228,-0.228,-0.2311,0,0,0,0,0,0,-0.2299,-0.2303,-0.2303,-0.2314,-0.2317,-0.2334,-0.2326,-0.2325,-0.2329,-0.2327,-0.2317,-0.2314,-0.2307,-0.23,-0.2299,-0.2304,-0.2293,-0.228,-0.228,-0.228,-0.231,-0.2312,-0.2314,0,0,0,0,0,-0.2297,-0.2302,-0.2303,-0.2307,-0.232,-0.2334,-0.2335,-0.2334,-0.2329,-0.2331,-0.2322,-0.2315,-0.2299,-0.23,-0.2298,-0.2304,-0.228,-0.228,-0.228,-0.2309,-0.2312,-0.2314,0,0,0,0,0,0,-0.2285,-0.2302,-0.2304,-0.2313,-0.2324,-0.2333,-0.2334,-0.2336,-0.2331,-0.2327,-0.2317,-0.2314,-0.2312,-0.2301,-0.2303,-0.2298,-0.2287,-0.2287,-0.231,-0.2312,-0.2314,-0.2302,-0.2293,0,0,0,0,0,-0.2284,-0.2291,-0.2308,-0.2314,-0.232,-0.2327,-0.2331,-0.2334,-0.2335,-0.2332,-0.2326,-0.2315,-0.2311,-0.2307,-0.23,-0.2298,-0.2279,-0.2299,-0.2301,-0.2302,-0.229,-0.228,-0.228,-0.228,-0.228,-0.228,0,0,-0.228,-0.2291,-0.2293,-0.2311,-0.2317,-0.2329,-0.2328,-0.2338,-0.2343,-0.2331,-0.2329,-0.2323,-0.2312,-0.2311,-0.2308,-0.2303,-0.2291,-0.2302,-0.2304,-0.229,-0.228,-0.228,-0.228,-0.228,-0.228,-0.228,0,0,-0.2279,-0.2287,-0.2292,-0.2305,-0.2321,-0.2329,-0.2333,-0.2345,-0.2344,-0.2349,-0.2339,-0.2332,-0.2328,-0.2318,-0.2313,-0.2318,-0.2304,-0.2322,-0.2322,-0.2313,-0.2313,-0.2312,-0.2286,-0.2283,-0.2322,-0.2322,-0.2322,0,-0.2273,-0.2283,-0.2296,-0.2309,-0.2318,-0.233,-0.234,-0.2346,-0.2353,-0.2353,-0.235,-0.2338,-0.2328,-0.2323,-0.2323,-0.2322,-0.2312,-0.2318,-0.2316,-0.2315,-0.2314,-0.2287,-0.2284,-0.2324,-0.2324,-0.2323,-0.2323,0,-0.2277,-0.2288,-0.2293,-0.2312,-0.2325,-0.2336,-0.2353,-0.236,-0.2362,-0.2367,-0.2364,-0.235,-0.2341,-0.2341,-0.2332,-0.2324,-0.2316,-0.2323,-0.2312,-0.2316,-0.2287,-0.2283,-0.2326,-0.2325,-0.2325,-0.2324,0,0,-0.2249,-0.2288,-0.2287,-0.2299,-0.2327,-0.2338,-0.2353,-0.2368,-0.2373,-0.2375,-0.2375,-0.2363,-0.2356,-0.2348,-0.2339,-0.2326,-0.2309,-0.2322,-0.232,-0.2298,-0.228,-0.2203,-0.219,-0.2325,-0.2324,-0.2324,-0.2261,0,-0.2243,-0.2266,-0.2288,-0.2306,-0.2318,-0.2342,-0.2356,-0.2373,-0.2381,-0.2385,-0.2374,-0.237,-0.2361,-0.2355,-0.2343,-0.2323,-0.2299,-0.2324,-0.2275,-0.2273,-0.2207,-0.2183,-0.2104,-0.2035,-0.2257,-0.2256,-0.2256,0,-0.2233,-0.2249,-0.2265,-0.2304,-0.2311,-0.2324,-0.2346,-0.2362,-0.2378,-0.2385,-0.2384,-0.2381,-0.2361,-0.2353,-0.2311,-0.2333,-0.2299,-0.2278,-0.2276,-0.2186,-0.2188,-0.2066,-0.2018,-0.1994,-0.2249,-0.2249,-0.225,0,-0.2192,-0.2233,-0.2242,-0.2254,-0.2297,-0.2305,-0.2326,-0.2353,-0.2364,-0.2379,-0.2386,-0.2376,-0.2364,-0.2334,-0.2289,-0.2306,-0.2235,-0.2256,-0.2149,-0.2144,-0.2053,-0.2039,-0.1973,-0.221,-0.221,-0.221,-0.221,0,-0.2166,-0.2173,-0.2224,-0.222,-0.2235,-0.2278,-0.2288,-0.2314,-0.2343,-0.235,-0.2375,-0.2368,-0.236,-0.2325,-0.2286,-0.2192,-0.2231,-0.2128,-0.2117,-0.206,-0.2048,-0.2003,-0.2023,-0.2208,-0.2208,-0.2209,-0.2209,0,-0.2106,-0.2141,-0.2155,-0.2198,-0.221,-0.2217,-0.2262,-0.2272,-0.2313,-0.2321,-0.2325,-0.2355,-0.2308,-0.2276,-0.222,-0.2173,-0.2054,-0.2056,-0.1976,-0.1955,-0.183,-0.1854,-0.1759,-0.1711,-0.1929,-0.1926,-0.1924,0,-0.2074,-0.2074,-0.2121,-0.2123,-0.2135,-0.2157,-0.2171,-0.2235,-0.2251,-0.23,-0.2296,-0.2279,-0.2237,-0.2128,-0.2039,-0.1936,-0.1945,-0.1813,-0.1821,-0.1786,-0.1807,-0.1831,-0.18,-0.1716,-0.1712,-0.171,-0.1707,0,-0.1999,-0.202,-0.2024,-0.204,-0.2054,-0.2075,-0.2104,-0.2116,-0.2185,-0.2196,-0.2193,-0.2167,-0.2079,-0.194,-0.1822,-0.1758,-0.1764,-0.1748,-0.174,-0.164,-0.1635,-0.1595,-0.1794,-0.1681,-0.1684,-0.1686,-0.1687,-0.1688,-0.1931,-0.1924,-0.1935,-0.1939,-0.196,-0.1967,-0.194,-0.1986,-0.199,-0.1975,-0.2031,-0.1953,-0.1874,-0.1689,-0.1619,-0.1481,-0.1549,-0.1446,-0.1479,-0.1507,-0.1449,-0.1573,-0.1435,-0.1436,-0.1437,-0.1438,-0.1438,0,-0.1836,-0.1832,-0.1834,-0.1828,-0.1803,-0.1856,-0.1867,-0.1819,-0.1777,-0.1798,-0.1758,-0.1669,-0.1528,-0.1465,-0.1323,-0.1244,-0.123,-0.1223,-0.1254,-0.1237,-0.1356,-0.1334,-0.1134,-0.1134,-0.1134,-0.1135,-0.1135,-0.1135,-0.1779,-0.1739,-0.1742,-0.1661,-0.1654,-0.158,-0.1557,-0.1516,-0.1501,-0.1414,-0.1376,-0.1385,-0.1334,-0.1341,-0.1205,-0.1139,-0.1121,-0.1077,-0.1107,-0.1217,-0.1242,-0.1266,-0.1248,-0.1034,-0.1034,-0.0944,-0.0943,-0.0943]},{"header":{"parameterUnit":"m.s-1","parameterCategory":2,"la1":30.2991,"la2":30.254,"lo1":-89.0895,"lo2":-89.0444,"dy":0.0017,"dx":0.0017,"nx":28,"ny":28,"refTime":"2024-03-03T03:00:00:Z","depth":"0","parameterNumber":3,"parameterNumberName":"V-component_of_CURRENTS"},"data":[0,0,0,0,0,0,0,0,0,0,0,0,0,0,0,0,0,0,0,0,0,0,0,0,0,0,0,0,0,0,0,0,0,0,0,0,0,0,0,0,0,0,0,0,0,0,0,0,0,0,0,0,0,0,0,0,0,0,-0.0447,-0.0447,0,-0.0406,-0.0406,-0.0405,-0.0376,-0.0376,-0.0376,-0.0375,-0.0277,-0.0275,-0.0272,0,0,0,0,0,0,0,0,0,0,0,0,0,-0.0462,-0.0462,-0.0447,-0.0447,-0.0446,-0.0407,-0.0406,-0.0405,-0.0376,-0.0376,-0.0376,-0.0375,-0.0278,-0.0275,-0.0272,0,0,0,0,0,0,0,0,0,0,0,0,0,-0.0442,-0.0462,-0.0447,-0.0427,-0.0425,-0.0407,-0.0406,-0.0405,-0.0376,-0.0376,-0.0376,-0.0375,-0.0279,-0.0275,-0.0272,-0.0255,0,0,-0.026,-0.0259,0,0,0,0,0,0,0,0,-0.0443,-0.0441,-0.0431,-0.0429,-0.0426,-0.0396,-0.0375,-0.0352,-0.0376,-0.0394,-0.0375,-0.0375,-0.0312,-0.0306,-0.0299,-0.0251,-0.0247,-0.026,-0.0258,-0.0256,-0.0255,0,0,0,0,0,0,0,-0.0444,-0.0442,-0.0431,-0.043,-0.0427,-0.0407,-0.0404,-0.0371,-0.0354,-0.0393,-0.0391,-0.0387,-0.031,-0.0303,-0.0296,-0.0245,-0.026,-0.0257,-0.0255,-0.0253,-0.017,-0.017,0,0,0,0,0,0,-0.0453,-0.0444,-0.0432,-0.0429,-0.0434,-0.0408,-0.0404,-0.0406,-0.0356,-0.0348,-0.0387,-0.0386,-0.0309,-0.0301,-0.0293,-0.0269,-0.0256,-0.0253,-0.0251,-0.017,-0.017,-0.017,0,0,0,0,0,0,-0.0453,-0.0452,-0.0434,-0.0436,-0.0432,-0.0408,-0.041,-0.0405,-0.0397,-0.0352,-0.0343,-0.0384,-0.0308,-0.0298,-0.0267,-0.0265,-0.0251,-0.0248,-0.017,-0.017,-0.017,-0.0222,0,0,0,0,0,0,-0.0454,-0.0453,-0.0458,-0.0437,-0.0432,-0.0428,-0.041,-0.0405,-0.0396,-0.0393,-0.0346,-0.0337,-0.0307,-0.0273,-0.0264,-0.0259,-0.0245,-0.017,-0.017,-0.017,-0.022,-0.0223,-0.0226,0,0,0,0,0,-0.0455,-0.0464,-0.0458,-0.0457,-0.044,-0.0428,-0.0424,-0.0405,-0.0396,-0.0396,-0.0365,-0.0339,-0.0266,-0.0271,-0.0259,-0.0254,-0.017,-0.017,-0.017,-0.0219,-0.0223,-0.0226,0,0,0,0,0,0,-0.0472,-0.0462,-0.0455,-0.046,-0.0447,-0.0423,-0.0422,-0.0409,-0.0386,-0.0382,-0.0339,-0.0328,-0.0301,-0.027,-0.0276,-0.0229,-0.0213,-0.0211,-0.0253,-0.0257,-0.026,-0.0272,-0.0242,0,0,0,0,0,-0.048,-0.0485,-0.0468,-0.0472,-0.0468,-0.0446,-0.0439,-0.0427,-0.0404,-0.0394,-0.0361,-0.0324,-0.0292,-0.027,-0.024,-0.0213,-0.0172,-0.0201,-0.0204,-0.0207,-0.021,-0.0152,-0.0151,-0.017,-0.017,-0.017,0,0,-0.0487,-0.0482,-0.0484,-0.0476,-0.0465,-0.0466,-0.0441,-0.0435,-0.0432,-0.0385,-0.037,-0.0336,-0.0289,-0.0263,-0.0247,-0.0236,-0.0178,-0.0207,-0.021,-0.0211,-0.0152,-0.015,-0.0148,-0.017,-0.017,-0.017,0,0,-0.0511,-0.0502,-0.0517,-0.0509,-0.0498,-0.0482,-0.0482,-0.0461,-0.0447,-0.0428,-0.0395,-0.036,-0.0314,-0.0278,-0.0254,-0.0253,-0.0201,-0.0243,-0.0263,-0.0208,-0.0205,-0.0203,-0.0143,-0.0135,-0.024,-0.024,-0.024,0,-0.0521,-0.0537,-0.0518,-0.0529,-0.0526,-0.0493,-0.0505,-0.0486,-0.0456,-0.0441,-0.043,-0.0358,-0.0319,-0.0278,-0.0281,-0.026,-0.0221,-0.0254,-0.0212,-0.0209,-0.0206,-0.0144,-0.0135,-0.0242,-0.0242,-0.0242,-0.0242,0,-0.0556,-0.0567,-0.0574,-0.0577,-0.0569,-0.0573,-0.0546,-0.0533,-0.051,-0.0484,-0.0443,-0.0392,-0.0345,-0.0328,-0.0305,-0.0264,-0.024,-0.0228,-0.0205,-0.0207,-0.0142,-0.0131,-0.0246,-0.0245,-0.0244,-0.0244,0,0,-0.0586,-0.0598,-0.0601,-0.0612,-0.0595,-0.0594,-0.0583,-0.056,-0.0548,-0.0509,-0.0483,-0.0428,-0.0393,-0.0364,-0.0322,-0.0277,-0.0219,-0.0249,-0.0245,-0.0194,-0.0092,-0.0056,-0.004,-0.0201,-0.02,-0.0199,-0.0054,0,-0.062,-0.0657,-0.0647,-0.0672,-0.0686,-0.0651,-0.0643,-0.0613,-0.0576,-0.054,-0.0475,-0.0435,-0.0407,-0.0382,-0.0333,-0.0248,-0.0194,-0.026,-0.0094,-0.0089,-0.006,-0.0027,-0.0013,0.0119,-0.0043,-0.0041,-0.004,0,-0.0661,-0.0679,-0.0716,-0.0721,-0.0722,-0.0727,-0.07,-0.0687,-0.0622,-0.0591,-0.0534,-0.0477,-0.04,-0.038,-0.0231,-0.0275,-0.0191,-0.0126,-0.0118,-0.006,-0.0032,0.0095,0.0145,0.0238,-0.0023,-0.0024,-0.0025,0,-0.0698,-0.0725,-0.0758,-0.0761,-0.0759,-0.0762,-0.0752,-0.0704,-0.0686,-0.0617,-0.0588,-0.049,-0.0427,-0.0323,-0.0184,-0.0204,-0.0015,-0.0019,0.0096,0.01,0.0158,0.0164,0.0314,0.0086,0.0085,0.0085,0.0085,0,-0.074,-0.0764,-0.0781,-0.0798,-0.0827,-0.0804,-0.0809,-0.0784,-0.073,-0.0696,-0.0617,-0.0555,-0.0411,-0.0284,-0.0176,0.0005,0.0002,0.0104,0.0143,0.0141,0.0144,0.0264,0.0292,0.009,0.0089,0.0088,0.0087,0,-0.078,-0.0791,-0.0829,-0.0844,-0.0851,-0.087,-0.0858,-0.085,-0.0797,-0.0746,-0.0723,-0.0584,-0.0411,-0.0258,-0.0059,0.003,0.0257,0.0248,0.0238,0.0272,0.0443,0.0467,0.0661,0.0731,0.0396,0.0397,0.0399,0,-0.0803,-0.0831,-0.0873,-0.0898,-0.0909,-0.0928,-0.0936,-0.0895,-0.0873,-0.0753,-0.0724,-0.0549,-0.0403,-0.01,0.0089,0.0304,0.0366,0.0431,0.039,0.0471,0.0527,0.0538,0.0583,0.0455,0.0457,0.0459,0.046,0,-0.0844,-0.0862,-0.0894,-0.0953,-0.0979,-0.1001,-0.1,-0.0988,-0.0913,-0.0842,-0.0698,-0.0568,-0.0269,-0.0002,0.0264,0.0378,0.0499,0.0468,0.0564,0.0598,0.0612,0.0691,0.0342,0.0474,0.0472,0.0471,0.0471,0.047,-0.0868,-0.0906,-0.0952,-0.1003,-0.1036,-0.1055,-0.105,-0.101,-0.095,-0.0803,-0.0681,-0.0453,-0.0096,0.029,0.0427,0.0677,0.0643,0.0732,0.0761,0.0771,0.0818,0.0498,0.0658,0.0658,0.0658,0.0657,0.0657,0,-0.0895,-0.0938,-0.0995,-0.1049,-0.1083,-0.1091,-0.1076,-0.1029,-0.0931,-0.0767,-0.0595,-0.0179,0.0162,0.0468,0.0828,0.0959,0.0979,0.1011,0.1028,0.1065,0.0803,0.0783,0.0964,0.0964,0.0964,0.0963,0.0963,0.0963,-0.091,-0.0974,-0.1008,-0.1075,-0.1103,-0.1111,-0.109,-0.0991,-0.0863,-0.0567,-0.0311,-0.0102,0.0322,0.0879,0.1195,0.1212,0.1323,0.1301,0.1377,0.1177,0.1152,0.1128,0.1118,0.1366,0.1367,0.1625,0.1628,0.163]}],[{"header":{"parameterUnit":"m.s-1","parameterCategory":2,"la1":30.2991,"la2":30.254,"lo1":-89.0895,"lo2":-89.0444,"dy":0.0017,"dx":0.0017,"nx":28,"ny":28,"refTime":"2024-03-03T03:00:00:Z","depth":"2","parameterNumber":2,"parameterNumberName":"U-component_of_CURRENTS"},"data":[0,0,0,0,0,0,0,0,0,0,0,0,0,0,0,0,0,0,0,0,0,0,0,0,0,0,0,0,0,0,0,0,0,0,0,0,0,0,0,0,0,0,0,0,0,0,0,0,0,0,0,0,0,0,0,0,0,0,-0.1939,-0.1939,0,-0.1946,-0.1946,-0.1945,-0.194,-0.194,-0.194,-0.194,-0.1931,-0.1931,-0.1931,0,0,0,0,0,0,0,0,0,0,0,0,0,-0.1909,-0.191,-0.1939,-0.1939,-0.194,-0.1946,-0.1946,-0.1945,-0.194,-0.194,-0.194,-0.194,-0.1931,-0.1931,-0.1931,0,0,0,0,0,0,0,0,0,0,0,0,0,-0.1918,-0.191,-0.1939,-0.1939,-0.1939,-0.1946,-0.1946,-0.1945,-0.194,-0.194,-0.194,-0.194,-0.1931,-0.1931,-0.1931,-0.193,0,0,-0.193,-0.193,0,0,0,0,0,0,0,0,-0.1917,-0.1919,-0.1939,-0.1939,-0.194,-0.1944,-0.1932,-0.194,-0.194,-0.1938,-0.194,-0.194,-0.1935,-0.1935,-0.1933,-0.1929,-0.1929,-0.193,-0.1929,-0.1929,-0.1929,0,0,0,0,0,0,0,-0.1917,-0.1918,-0.194,-0.1939,-0.194,-0.1935,-0.1936,-0.1933,-0.1935,-0.1938,-0.1938,-0.1942,-0.1935,-0.1934,-0.1933,-0.1929,-0.193,-0.1929,-0.1929,-0.1929,-0.1922,-0.1922,0,0,0,0,0,0,-0.1921,-0.1918,-0.1939,-0.194,-0.193,-0.1936,-0.1937,-0.1941,-0.1935,-0.1935,-0.1942,-0.1942,-0.1934,-0.1933,-0.1933,-0.1944,-0.1929,-0.1929,-0.1929,-0.1922,-0.1922,-0.1922,0,0,0,0,0,0,-0.192,-0.1923,-0.1939,-0.1931,-0.1933,-0.1936,-0.1941,-0.1941,-0.1945,-0.1939,-0.1938,-0.1947,-0.1934,-0.1933,-0.1933,-0.1943,-0.1929,-0.1929,-0.1922,-0.1922,-0.1922,-0.1958,0,0,0,0,0,0,-0.1919,-0.1922,-0.1924,-0.1931,-0.1933,-0.1948,-0.1941,-0.1941,-0.1948,-0.1948,-0.1942,-0.1941,-0.1934,-0.1933,-0.1932,-0.1942,-0.1928,-0.1922,-0.1922,-0.1922,-0.1957,-0.1959,-0.1961,0,0,0,0,0,-0.1918,-0.1923,-0.1924,-0.1927,-0.1937,-0.1949,-0.195,-0.1951,-0.1948,-0.1953,-0.1946,-0.1942,-0.1932,-0.1933,-0.1932,-0.1942,-0.1922,-0.1922,-0.1922,-0.1956,-0.1959,-0.1961,0,0,0,0,0,0,-0.1911,-0.1923,-0.1925,-0.1933,-0.1943,-0.1949,-0.1952,-0.1955,-0.1953,-0.1952,-0.1944,-0.1942,-0.1945,-0.1936,-0.1937,-0.1938,-0.1926,-0.1926,-0.1952,-0.1954,-0.1957,-0.1947,-0.1928,0,0,0,0,0,-0.1911,-0.1917,-0.193,-0.1936,-0.1942,-0.1948,-0.1952,-0.1956,-0.1958,-0.1958,-0.1954,-0.1947,-0.1944,-0.1943,-0.1938,-0.1941,-0.1921,-0.1944,-0.1947,-0.1949,-0.1939,-0.1925,-0.1925,-0.1923,-0.1923,-0.1923,0,0,-0.1909,-0.1917,-0.192,-0.1935,-0.1941,-0.1953,-0.195,-0.1962,-0.1969,-0.1957,-0.1962,-0.1957,-0.1946,-0.1949,-0.1949,-0.1943,-0.1939,-0.1949,-0.1951,-0.1939,-0.1925,-0.1926,-0.1926,-0.1923,-0.1923,-0.1923,0,0,-0.1911,-0.1918,-0.1924,-0.1936,-0.1951,-0.1958,-0.1964,-0.1975,-0.1977,-0.1985,-0.1975,-0.1971,-0.1972,-0.1961,-0.1957,-0.1966,-0.1951,-0.1971,-0.1977,-0.1964,-0.1964,-0.1964,-0.194,-0.1937,-0.1973,-0.1973,-0.1973,0,-0.1909,-0.1918,-0.1928,-0.1941,-0.1951,-0.1962,-0.1974,-0.1981,-0.1989,-0.1991,-0.199,-0.1982,-0.1974,-0.1971,-0.1972,-0.1971,-0.1959,-0.1971,-0.1968,-0.1967,-0.1966,-0.1941,-0.1938,-0.1974,-0.1974,-0.1974,-0.1974,0,-0.1915,-0.1927,-0.1933,-0.1952,-0.1965,-0.1978,-0.1994,-0.2003,-0.2009,-0.2014,-0.2015,-0.2002,-0.1996,-0.1996,-0.1987,-0.1981,-0.1972,-0.1974,-0.1963,-0.1969,-0.1942,-0.1938,-0.1977,-0.1976,-0.1976,-0.1975,0,0,-0.1893,-0.1931,-0.1931,-0.1943,-0.1972,-0.1982,-0.2001,-0.2017,-0.2026,-0.2031,-0.2035,-0.2025,-0.202,-0.2012,-0.2003,-0.1988,-0.1972,-0.1981,-0.1979,-0.1959,-0.1939,-0.1869,-0.1858,-0.1982,-0.1981,-0.1981,-0.1922,0,-0.1892,-0.1916,-0.1936,-0.1959,-0.1972,-0.1995,-0.2011,-0.2029,-0.204,-0.2047,-0.2037,-0.2037,-0.2027,-0.2024,-0.2011,-0.1984,-0.1963,-0.1987,-0.1932,-0.193,-0.187,-0.1851,-0.1735,-0.1667,-0.1918,-0.1917,-0.1917,0,-0.1886,-0.1902,-0.1922,-0.1961,-0.1969,-0.1985,-0.201,-0.2027,-0.2046,-0.2055,-0.2058,-0.2055,-0.2036,-0.2027,-0.1981,-0.2001,-0.1967,-0.1942,-0.194,-0.1855,-0.1852,-0.1701,-0.165,-0.1909,-0.191,-0.1911,-0.1911,0,-0.1851,-0.1893,-0.1906,-0.1918,-0.196,-0.1972,-0.1995,-0.2023,-0.2036,-0.2055,-0.2064,-0.2055,-0.2042,-0.201,-0.1962,-0.1976,-0.1902,-0.1918,-0.1817,-0.1812,-0.1689,-0.1673,-0.1871,-0.1871,-0.1871,-0.1872,-0.1872,0,-0.1831,-0.1841,-0.1891,-0.1891,-0.191,-0.1951,-0.1967,-0.1994,-0.2024,-0.2029,-0.2059,-0.205,-0.2038,-0.2002,-0.196,-0.1866,-0.19,-0.18,-0.1787,-0.1697,-0.1684,-0.1877,-0.1878,-0.1869,-0.187,-0.187,-0.1871,0,-0.1779,-0.1813,-0.1832,-0.1877,-0.1889,-0.1901,-0.1948,-0.1959,-0.2001,-0.2008,-0.2013,-0.2039,-0.1989,-0.1958,-0.1895,-0.1849,-0.1776,-0.1732,-0.162,-0.1593,-0.1697,-0.1701,-0.1618,-0.1615,-0.1612,-0.161,-0.1608,0,-0.1753,-0.1755,-0.1805,-0.181,-0.1825,-0.1851,-0.1864,-0.1928,-0.1941,-0.1985,-0.1977,-0.196,-0.1911,-0.1804,-0.1718,-0.1619,-0.1685,-0.1465,-0.1463,-0.1673,-0.1669,-0.1677,-0.1684,-0.1316,-0.1312,-0.1309,-0.1306,0,-0.1688,-0.171,-0.1718,-0.1736,-0.1752,-0.1773,-0.1801,-0.181,-0.1871,-0.1879,-0.1864,-0.1833,-0.1748,-0.1591,-0.1484,-0.1419,-0.1476,-0.1393,-0.1629,-0.1402,-0.1384,-0.1382,-0.1399,-0.1276,-0.1279,-0.1281,-0.1283,-0.1284,-0.1629,-0.1626,-0.1639,-0.1645,-0.1668,-0.1668,-0.1639,-0.1674,-0.1671,-0.164,-0.1691,-0.1591,-0.1563,-0.1324,-0.123,-0.1158,-0.126,-0.1209,-0.1221,-0.1236,-0.1215,-0.1194,-0.1046,-0.1048,-0.1049,-0.105,-0.1051,0,-0.1543,-0.1541,-0.1544,-0.154,-0.1515,-0.1566,-0.1566,-0.1508,-0.1452,-0.1454,-0.1403,-0.1226,-0.1117,-0.1088,-0.0927,-0.0888,-0.0899,-0.0854,-0.0876,-0.0906,-0.0932,-0.0898,-0.0643,-0.0642,-0.0641,-0.064,0,0,-0.1492,-0.1455,-0.1455,-0.1376,-0.137,-0.1292,-0.1262,-0.1203,-0.1171,-0.1069,-0.101,-0.1055,-0.1068,-0.0862,-0.0807,-0.07,-0.08,-0.0664,-0.0993,-0.105,-0.1075,-0.1137,-0.1116,0,0,0,0,0]},{"header":{"parameterUnit":"m.s-1","parameterCategory":2,"la1":30.2991,"la2":30.254,"lo1":-89.0895,"lo2":-89.0444,"dy":0.0017,"dx":0.0017,"nx":28,"ny":28,"refTime":"2024-03-03T03:00:00:Z","depth":"2","parameterNumber":3,"parameterNumberName":"V-component_of_CURRENTS"},"data":[0,0,0,0,0,0,0,0,0,0,0,0,0,0,0,0,0,0,0,0,0,0,0,0,0,0,0,0,0,0,0,0,0,0,0,0,0,0,0,0,0,0,0,0,0,0,0,0,0,0,0,0,0,0,0,0,0,0,-0.044,-0.0439,0,-0.0405,-0.0404,-0.0404,-0.038,-0.038,-0.0379,-0.0379,-0.0297,-0.0295,-0.0293,0,0,0,0,0,0,0,0,0,0,0,0,0,-0.045,-0.045,-0.044,-0.0439,-0.0439,-0.0405,-0.0404,-0.0404,-0.038,-0.038,-0.0379,-0.0379,-0.0297,-0.0295,-0.0293,0,0,0,0,0,0,0,0,0,0,0,0,0,-0.0433,-0.045,-0.044,-0.0423,-0.0421,-0.0405,-0.0404,-0.0404,-0.038,-0.038,-0.0379,-0.0379,-0.0298,-0.0295,-0.0292,-0.0278,0,0,-0.0283,-0.0281,0,0,0,0,0,0,0,0,-0.0434,-0.0433,-0.0426,-0.0424,-0.0422,-0.0397,-0.0378,-0.0359,-0.038,-0.0395,-0.0379,-0.0379,-0.0326,-0.0321,-0.0315,-0.0274,-0.027,-0.0282,-0.0281,-0.0279,-0.0278,0,0,0,0,0,0,0,-0.0436,-0.0434,-0.0426,-0.0426,-0.0423,-0.0405,-0.0403,-0.0374,-0.0361,-0.0394,-0.0392,-0.0389,-0.0325,-0.0318,-0.0313,-0.0269,-0.0283,-0.028,-0.0278,-0.0277,-0.0204,-0.0204,0,0,0,0,0,0,-0.0443,-0.0435,-0.0427,-0.0425,-0.0428,-0.0405,-0.0402,-0.0405,-0.0363,-0.0356,-0.0389,-0.0388,-0.0323,-0.0316,-0.031,-0.0285,-0.0279,-0.0276,-0.0275,-0.0204,-0.0204,-0.0204,0,0,0,0,0,0,-0.0443,-0.0442,-0.0428,-0.0429,-0.0426,-0.0406,-0.0408,-0.0404,-0.0398,-0.0359,-0.0352,-0.0387,-0.0323,-0.0314,-0.0288,-0.0282,-0.0275,-0.0272,-0.0204,-0.0204,-0.0204,-0.0239,0,0,0,0,0,0,-0.0444,-0.0443,-0.0448,-0.043,-0.0426,-0.0423,-0.0408,-0.0404,-0.0396,-0.0394,-0.0355,-0.0347,-0.0322,-0.0293,-0.0285,-0.0277,-0.027,-0.0204,-0.0204,-0.0204,-0.0238,-0.024,-0.0242,0,0,0,0,0,-0.0444,-0.0453,-0.0449,-0.0447,-0.0434,-0.0423,-0.042,-0.0404,-0.0396,-0.0397,-0.037,-0.0348,-0.0286,-0.029,-0.0281,-0.0272,-0.0204,-0.0204,-0.0204,-0.0237,-0.0239,-0.0242,0,0,0,0,0,0,-0.0459,-0.0451,-0.0446,-0.0451,-0.044,-0.0419,-0.0418,-0.0407,-0.0387,-0.0385,-0.0348,-0.0339,-0.0314,-0.0289,-0.0295,-0.0251,-0.0241,-0.0239,-0.0269,-0.0271,-0.0273,-0.0281,-0.0267,0,0,0,0,0,-0.0466,-0.0471,-0.0457,-0.0461,-0.0458,-0.0439,-0.0433,-0.0423,-0.0403,-0.0394,-0.0366,-0.0335,-0.0306,-0.0287,-0.0261,-0.0236,-0.0203,-0.0223,-0.0226,-0.0227,-0.0228,-0.0178,-0.0175,-0.0203,-0.0203,-0.0203,0,0,-0.0473,-0.0469,-0.0471,-0.0465,-0.0455,-0.0455,-0.0435,-0.043,-0.0424,-0.0387,-0.0372,-0.0343,-0.0302,-0.0277,-0.0263,-0.0255,-0.0202,-0.0227,-0.0229,-0.0229,-0.0177,-0.0174,-0.0172,-0.0203,-0.0203,-0.0203,0,0,-0.0492,-0.0486,-0.0499,-0.0491,-0.0482,-0.0468,-0.0468,-0.045,-0.0437,-0.042,-0.0391,-0.0358,-0.0319,-0.0285,-0.0262,-0.0257,-0.0218,-0.0251,-0.0261,-0.0213,-0.021,-0.0207,-0.0161,-0.0154,-0.0247,-0.0247,-0.0247,0,-0.0501,-0.0514,-0.0499,-0.0507,-0.0503,-0.0477,-0.0485,-0.0468,-0.0442,-0.0427,-0.0421,-0.0354,-0.032,-0.0277,-0.0277,-0.026,-0.0231,-0.0257,-0.0215,-0.0212,-0.0208,-0.0162,-0.0154,-0.0249,-0.0249,-0.0249,-0.0249,0,-0.0527,-0.0537,-0.0542,-0.0544,-0.0537,-0.0539,-0.0514,-0.0502,-0.0483,-0.0459,-0.042,-0.0374,-0.0331,-0.0314,-0.0294,-0.0252,-0.0239,-0.0228,-0.0211,-0.0208,-0.0159,-0.015,-0.0251,-0.0251,-0.025,-0.025,0,0,-0.0552,-0.0561,-0.0564,-0.0572,-0.0557,-0.0555,-0.0542,-0.052,-0.0507,-0.0471,-0.0446,-0.0392,-0.0362,-0.0335,-0.0298,-0.0256,-0.0204,-0.0237,-0.0233,-0.0194,-0.0099,-0.0077,-0.0064,-0.0189,-0.0187,-0.0186,-0.0074,0,-0.0579,-0.0608,-0.0599,-0.0617,-0.0628,-0.0597,-0.0588,-0.056,-0.0527,-0.0495,-0.0433,-0.0398,-0.0369,-0.0349,-0.03,-0.0229,-0.0181,-0.0235,-0.0105,-0.0101,-0.0084,-0.0053,-0.0074,0.0025,-0.0065,-0.0063,-0.0062,0,-0.0611,-0.0625,-0.0655,-0.0657,-0.0658,-0.066,-0.0636,-0.0622,-0.0564,-0.0536,-0.0482,-0.0434,-0.036,-0.0342,-0.021,-0.0249,-0.0178,-0.0123,-0.0117,-0.0078,-0.0062,0.0008,0.0046,-0.0046,-0.0047,-0.0048,-0.005,0,-0.0643,-0.0663,-0.069,-0.0691,-0.0688,-0.069,-0.0681,-0.0637,-0.0622,-0.056,-0.0536,-0.0445,-0.0393,-0.0297,-0.0179,-0.0193,-0.0035,-0.0035,0.0054,0.0056,0.0075,0.0076,0.0059,0.0059,0.0058,0.0058,0.0058,0,-0.0676,-0.0696,-0.0711,-0.0725,-0.0751,-0.0728,-0.0734,-0.071,-0.0664,-0.0639,-0.0562,-0.0514,-0.0381,-0.0274,-0.0176,-0.0025,-0.0024,0.0062,0.0091,0.0062,0.0061,0.0024,0.0018,0.0062,0.0061,0.0061,0.006,0,-0.0711,-0.0719,-0.0752,-0.0764,-0.0771,-0.0789,-0.0783,-0.0778,-0.073,-0.0693,-0.0674,-0.0553,-0.0408,-0.0269,-0.0097,-0.0015,0.0119,0.017,0.0125,0.0147,0.0175,0.0167,0.0283,0.0285,0.0286,0.0287,0.0288,0,-0.0731,-0.0755,-0.0793,-0.0817,-0.0828,-0.0848,-0.0858,-0.0822,-0.0807,-0.0711,-0.0691,-0.0546,-0.0427,-0.0166,0.0002,0.0191,0.018,0.0271,0.0243,0.0184,0.0201,0.019,0.0179,0.0258,0.0259,0.0259,0.026,0,-0.0767,-0.0784,-0.0812,-0.0871,-0.0898,-0.0921,-0.0926,-0.0921,-0.0861,-0.0806,-0.0696,-0.059,-0.0337,-0.012,0.0114,0.0212,0.0237,0.029,0.0262,0.0195,0.0168,0.0181,0.0171,0.0265,0.0264,0.0264,0.0264,0.0264,-0.0791,-0.0826,-0.0869,-0.0921,-0.0955,-0.098,-0.0981,-0.0954,-0.0913,-0.0797,-0.0703,-0.0514,-0.0318,0.0031,0.0191,0.0328,0.0315,0.0344,0.034,0.0335,0.0304,0.0279,0.0392,0.0392,0.0392,0.0392,0.0392,0,-0.0818,-0.0859,-0.0913,-0.0969,-0.1007,-0.1015,-0.1012,-0.0976,-0.0906,-0.0773,-0.0639,-0.0401,-0.0159,0.0043,0.0271,0.0401,0.0376,0.0413,0.0358,0.0352,0.0347,0.0313,0.0406,0.0406,0.0407,0.0407,0,0,-0.0833,-0.0894,-0.0927,-0.0999,-0.1031,-0.1049,-0.1036,-0.0958,-0.0851,-0.0694,-0.0544,-0.0368,-0.013,0.0037,0.0197,0.0317,0.0298,0.032,0.0294,0.0203,0.0197,0.029,0.023,0,0,0,0,0]}],[{"header":{"parameterUnit":"m.s-1","parameterCategory":2,"la1":30.2991,"la2":30.254,"lo1":-89.0895,"lo2":-89.0444,"dy":0.0017,"dx":0.0017,"nx":28,"ny":28,"refTime":"2024-03-03T03:00:00:Z","depth":"4","parameterNumber":2,"parameterNumberName":"U-component_of_CURRENTS"},"data":[0,0,0,0,0,0,0,0,0,0,0,0,0,0,0,0,0,0,0,0,0,0,0,0,0,0,0,0,0,0,0,0,0,0,0,0,0,0,0,0,0,0,0,0,0,0,0,0,0,0,0,0,0,0,0,0,0,0,-0.1335,-0.1336,0,-0.137,-0.137,-0.137,-0.1404,-0.1405,-0.1405,-0.1406,-0.1451,-0.1452,-0.1452,0,0,0,0,0,0,0,0,0,0,0,0,0,-0.1286,-0.1286,-0.1335,-0.1336,-0.1336,-0.1369,-0.137,-0.137,-0.1404,-0.1405,-0.1406,-0.1406,-0.1451,-0.1452,-0.1452,0,0,0,0,0,0,0,0,0,0,0,0,0,-0.1311,-0.1286,-0.1335,-0.1358,-0.1361,-0.1369,-0.137,-0.137,-0.1404,-0.1405,-0.1406,-0.1407,-0.1451,-0.1452,-0.1452,-0.1441,0,0,-0.1455,-0.1456,0,0,0,0,0,0,0,0,-0.1309,-0.1312,-0.1354,-0.1357,-0.136,-0.1385,-0.1369,-0.1395,-0.1404,-0.1386,-0.1406,-0.1407,-0.143,-0.1433,-0.1435,-0.1443,-0.1445,-0.1456,-0.1456,-0.1457,-0.1457,0,0,0,0,0,0,0,-0.1308,-0.1311,-0.1347,-0.1355,-0.1358,-0.1363,-0.1367,-0.1374,-0.1402,-0.1388,-0.1391,-0.1397,-0.1432,-0.1434,-0.1436,-0.1445,-0.1455,-0.1456,-0.1457,-0.1457,-0.1496,-0.1496,0,0,0,0,0,0,-0.1306,-0.1309,-0.1346,-0.1348,-0.1338,-0.1363,-0.1368,-0.1375,-0.1402,-0.1407,-0.1396,-0.1398,-0.1432,-0.1435,-0.1438,-0.1485,-0.1457,-0.1457,-0.1458,-0.1495,-0.1496,-0.1496,0,0,0,0,0,0,-0.1305,-0.1309,-0.1345,-0.1331,-0.1336,-0.1363,-0.137,-0.1375,-0.1403,-0.1408,-0.1413,-0.1423,-0.1433,-0.1437,-0.1463,-0.1485,-0.1458,-0.1459,-0.1495,-0.1496,-0.1496,-0.1541,0,0,0,0,0,0,-0.1303,-0.1308,-0.1323,-0.1331,-0.1337,-0.1367,-0.137,-0.1375,-0.1405,-0.1409,-0.1432,-0.1436,-0.1434,-0.1462,-0.1464,-0.1486,-0.146,-0.1494,-0.1495,-0.1496,-0.1539,-0.1543,-0.1547,0,0,0,0,0,-0.1301,-0.1315,-0.1323,-0.1329,-0.1353,-0.1368,-0.1372,-0.1393,-0.1406,-0.1421,-0.1436,-0.1437,-0.1468,-0.1463,-0.1466,-0.1488,-0.1494,-0.1495,-0.1496,-0.1537,-0.1543,-0.1547,0,0,0,0,0,0,-0.1302,-0.132,-0.1329,-0.1349,-0.1366,-0.1375,-0.1394,-0.1406,-0.143,-0.1441,-0.1444,-0.1448,-0.1478,-0.1474,-0.1468,-0.15,-0.1481,-0.1482,-0.1511,-0.1516,-0.152,-0.1512,-0.146,0,0,0,0,0,-0.1308,-0.1325,-0.1339,-0.1358,-0.1369,-0.1386,-0.14,-0.1414,-0.143,-0.1443,-0.1459,-0.1471,-0.1479,-0.1492,-0.1497,-0.1518,-0.1496,-0.1532,-0.1536,-0.1539,-0.1534,-0.1521,-0.1524,-0.15,-0.15,-0.15,0,0,-0.1315,-0.1327,-0.1338,-0.136,-0.1376,-0.1395,-0.1397,-0.1426,-0.1446,-0.1443,-0.1483,-0.1488,-0.1486,-0.1509,-0.1521,-0.1513,-0.1535,-0.1541,-0.1544,-0.1536,-0.1523,-0.1525,-0.1527,-0.15,-0.15,-0.15,0,0,-0.1327,-0.1348,-0.1364,-0.1381,-0.1409,-0.1418,-0.1433,-0.1457,-0.1476,-0.1507,-0.1507,-0.1522,-0.1546,-0.1543,-0.1544,-0.1571,-0.1554,-0.1581,-0.1599,-0.1588,-0.159,-0.1591,-0.1566,-0.1564,-0.1585,-0.1585,-0.1585,0,-0.1338,-0.1356,-0.1372,-0.1391,-0.1409,-0.1432,-0.1454,-0.1473,-0.1504,-0.1518,-0.1529,-0.1554,-0.1558,-0.1568,-0.1579,-0.158,-0.1567,-0.1585,-0.1593,-0.1594,-0.1594,-0.1568,-0.1566,-0.1587,-0.1587,-0.1586,-0.1586,0,-0.1351,-0.1379,-0.1391,-0.1422,-0.1443,-0.1468,-0.1493,-0.1522,-0.1549,-0.1564,-0.1594,-0.1595,-0.1607,-0.1613,-0.1607,-0.1616,-0.1603,-0.1599,-0.1582,-0.1599,-0.1571,-0.1568,-0.159,-0.1589,-0.1589,-0.1588,0,0,-0.1338,-0.1391,-0.1398,-0.142,-0.1464,-0.1479,-0.1519,-0.155,-0.1575,-0.1607,-0.163,-0.1645,-0.1649,-0.1648,-0.1644,-0.1635,-0.1629,-0.1625,-0.1623,-0.1601,-0.1597,-0.1495,-0.1482,-0.1634,-0.1633,-0.1633,-0.1575,0,-0.1345,-0.1385,-0.1411,-0.1455,-0.1476,-0.1513,-0.1544,-0.1578,-0.1609,-0.1638,-0.1644,-0.1665,-0.1662,-0.1671,-0.1664,-0.1639,-0.1624,-0.1645,-0.1582,-0.158,-0.1488,-0.1476,-0.1633,-0.1573,-0.1572,-0.1572,-0.1571,0,-0.1343,-0.137,-0.1413,-0.147,-0.1484,-0.1516,-0.1567,-0.1598,-0.1639,-0.1662,-0.1685,-0.1693,-0.1692,-0.1685,-0.1649,-0.1667,-0.1635,-0.161,-0.1607,-0.1491,-0.1471,-0.1551,-0.1565,-0.1566,-0.1566,-0.1567,-0.1567,0,-0.1307,-0.1371,-0.1406,-0.1426,-0.149,-0.1521,-0.1559,-0.1608,-0.1632,-0.1678,-0.1695,-0.1704,-0.1705,-0.1677,-0.1634,-0.1647,-0.158,-0.1589,-0.1462,-0.1455,-0.1547,-0.1546,-0.1552,-0.1552,-0.1552,-0.1552,-0.1553,0,-0.1285,-0.1318,-0.1398,-0.1413,-0.1457,-0.1511,-0.1555,-0.1596,-0.1643,-0.1655,-0.1705,-0.1697,-0.1704,-0.1672,-0.1634,-0.1527,-0.1578,-0.145,-0.1428,-0.1567,-0.1569,-0.1544,-0.1544,-0.155,-0.1551,-0.1551,-0.1551,0,-0.1231,-0.1287,-0.1334,-0.1413,-0.144,-0.1473,-0.155,-0.157,-0.1631,-0.1646,-0.166,-0.169,-0.164,-0.1623,-0.1564,-0.1505,-0.1427,-0.1377,-0.1514,-0.1504,-0.1312,-0.1316,-0.1228,-0.1224,-0.122,-0.1217,-0.1215,0,-0.1203,-0.1222,-0.132,-0.1344,-0.1384,-0.1441,-0.1469,-0.155,-0.1564,-0.1615,-0.1602,-0.1595,-0.1592,-0.142,-0.1426,-0.1335,-0.1317,-0.1276,-0.1302,-0.1289,-0.1277,-0.1286,-0.1294,-0.1209,-0.1208,-0.1207,-0.1206,0,-0.114,-0.119,-0.1222,-0.1277,-0.1322,-0.136,-0.1409,-0.1407,-0.1475,-0.1551,-0.1489,-0.1447,-0.1386,-0.1332,-0.1268,-0.121,-0.1305,-0.1239,-0.1247,-0.1271,-0.1265,-0.1259,-0.1271,-0.1194,-0.1196,-0.1197,-0.1198,0,-0.1092,-0.1105,-0.1155,-0.1188,-0.1244,-0.1246,-0.129,-0.1288,-0.1312,-0.1374,-0.1343,-0.1333,-0.1364,-0.1264,-0.1205,-0.1139,-0.1123,-0.1088,-0.1103,-0.1117,-0.1106,-0.1084,-0.0922,0,0,0,0,0,-0.1034,-0.1029,-0.1056,-0.1082,-0.1132,-0.1157,-0.1226,-0.1268,-0.1337,-0.1255,-0.1294,-0.1229,-0.1143,-0.1145,-0.1047,-0.1151,-0.113,-0.1035,-0.11,-0.1125,-0.114,-0.1137,0,0,0,0,0,0,-0.0992,-0.1014,-0.1017,-0.0977,-0.0971,-0.1006,-0.1044,-0.1096,-0.1059,-0.1133,-0.1088,-0.1147,-0.1079,-0.1162,-0.1016,-0.1014,-0.1028,-0.1041,-0.1038,-0.1117,-0.113,-0.1142,-0.1144,0,0,0,0,0]},{"header":{"parameterUnit":"m.s-1","parameterCategory":2,"la1":30.2991,"la2":30.254,"lo1":-89.0895,"lo2":-89.0444,"dy":0.0017,"dx":0.0017,"nx":28,"ny":28,"refTime":"2024-03-03T03:00:00:Z","depth":"4","parameterNumber":3,"parameterNumberName":"V-component_of_CURRENTS"},"data":[0,0,0,0,0,0,0,0,0,0,0,0,0,0,0,0,0,0,0,0,0,0,0,0,0,0,0,0,0,0,0,0,0,0,0,0,0,0,0,0,0,0,0,0,0,0,0,0,0,0,0,0,0,0,0,0,0,0,-0.0331,-0.033,0,-0.0313,-0.0312,-0.0312,-0.0304,-0.0304,-0.0304,-0.0304,-0.0255,-0.0253,-0.0252,0,0,0,0,0,0,0,0,0,0,0,0,0,-0.0328,-0.0328,-0.0331,-0.033,-0.033,-0.0313,-0.0312,-0.0312,-0.0304,-0.0304,-0.0304,-0.0304,-0.0255,-0.0253,-0.0252,0,0,0,0,0,0,0,0,0,0,0,0,0,-0.0321,-0.0328,-0.0331,-0.0324,-0.0323,-0.0313,-0.0312,-0.0312,-0.0304,-0.0304,-0.0304,-0.0304,-0.0256,-0.0254,-0.0252,-0.0238,0,0,-0.0245,-0.0245,0,0,0,0,0,0,0,0,-0.0321,-0.0321,-0.0325,-0.0325,-0.0324,-0.0311,-0.0293,-0.0286,-0.0304,-0.0311,-0.0304,-0.0304,-0.0271,-0.0267,-0.0264,-0.0236,-0.0233,-0.0245,-0.0244,-0.0243,-0.0243,0,0,0,0,0,0,0,-0.0322,-0.0322,-0.0323,-0.0325,-0.0324,-0.0312,-0.0311,-0.0292,-0.029,-0.031,-0.031,-0.0308,-0.027,-0.0266,-0.0263,-0.0233,-0.0245,-0.0244,-0.0242,-0.0241,-0.0192,-0.0192,0,0,0,0,0,0,-0.0326,-0.0322,-0.0324,-0.0323,-0.0323,-0.0312,-0.0311,-0.0315,-0.0291,-0.0287,-0.0308,-0.0308,-0.0269,-0.0265,-0.0261,-0.0245,-0.0243,-0.0241,-0.024,-0.0193,-0.0192,-0.0192,0,0,0,0,0,0,-0.0326,-0.0327,-0.0324,-0.0322,-0.0321,-0.0312,-0.0316,-0.0314,-0.0315,-0.0289,-0.0286,-0.0311,-0.0269,-0.0264,-0.0249,-0.0243,-0.024,-0.0239,-0.0193,-0.0192,-0.0192,-0.0213,0,0,0,0,0,0,-0.0326,-0.0327,-0.0334,-0.0322,-0.0321,-0.0324,-0.0316,-0.0314,-0.0314,-0.0314,-0.0291,-0.0286,-0.0269,-0.0253,-0.0247,-0.0241,-0.0237,-0.0193,-0.0193,-0.0192,-0.0212,-0.0214,-0.0215,0,0,0,0,0,-0.0326,-0.0335,-0.0335,-0.0335,-0.0331,-0.0324,-0.0323,-0.0316,-0.0314,-0.0317,-0.0302,-0.0287,-0.0248,-0.0251,-0.0245,-0.0237,-0.0193,-0.0193,-0.0192,-0.0212,-0.0213,-0.0215,0,0,0,0,0,0,-0.0337,-0.0335,-0.0334,-0.0342,-0.0337,-0.0323,-0.0326,-0.032,-0.0311,-0.0312,-0.0287,-0.0282,-0.0266,-0.025,-0.0255,-0.0223,-0.0217,-0.0216,-0.0234,-0.0235,-0.0236,-0.0238,-0.0235,0,0,0,0,0,-0.0344,-0.0351,-0.0343,-0.035,-0.035,-0.0339,-0.0337,-0.0333,-0.0321,-0.0318,-0.0301,-0.0281,-0.0259,-0.0248,-0.023,-0.0213,-0.0189,-0.0203,-0.0204,-0.0205,-0.0203,-0.0163,-0.016,-0.0192,-0.0192,-0.0192,0,0,-0.035,-0.035,-0.0354,-0.0354,-0.035,-0.035,-0.0339,-0.0339,-0.0336,-0.0313,-0.0306,-0.0287,-0.0257,-0.0239,-0.023,-0.0225,-0.0185,-0.0205,-0.0206,-0.0203,-0.0162,-0.0159,-0.0156,-0.0192,-0.0192,-0.0192,0,0,-0.0365,-0.0367,-0.0378,-0.0375,-0.0372,-0.0364,-0.0366,-0.0356,-0.035,-0.034,-0.032,-0.0295,-0.0272,-0.0243,-0.0225,-0.022,-0.0194,-0.0218,-0.0221,-0.0182,-0.0179,-0.0176,-0.0147,-0.0141,-0.0216,-0.0216,-0.0216,0,-0.0374,-0.0386,-0.0379,-0.0386,-0.0385,-0.0372,-0.0378,-0.0367,-0.0354,-0.0344,-0.0343,-0.0293,-0.0269,-0.0231,-0.023,-0.0221,-0.0202,-0.022,-0.0183,-0.018,-0.0176,-0.0147,-0.014,-0.0217,-0.0217,-0.0217,-0.0217,0,-0.0391,-0.0403,-0.0408,-0.0412,-0.0409,-0.0414,-0.0398,-0.0393,-0.0384,-0.0367,-0.0338,-0.0303,-0.0271,-0.0257,-0.0242,-0.0204,-0.02,-0.0192,-0.018,-0.0174,-0.0144,-0.0136,-0.0218,-0.0218,-0.0218,-0.0217,0,0,-0.0407,-0.042,-0.0424,-0.0432,-0.0425,-0.0426,-0.0418,-0.0403,-0.0397,-0.0372,-0.0354,-0.0307,-0.0287,-0.0265,-0.0237,-0.02,-0.0159,-0.019,-0.0188,-0.0162,-0.0081,-0.0089,-0.0081,-0.0147,-0.0146,-0.0145,-0.0071,0,-0.0425,-0.0449,-0.0445,-0.0463,-0.0472,-0.0455,-0.0449,-0.0432,-0.0412,-0.0391,-0.034,-0.0315,-0.0289,-0.0276,-0.0233,-0.0179,-0.014,-0.018,-0.009,-0.0087,-0.0095,-0.0073,-0.0141,-0.0065,-0.0064,-0.0062,-0.0061,0,-0.0444,-0.0458,-0.0484,-0.0492,-0.0495,-0.0501,-0.049,-0.0481,-0.044,-0.0423,-0.038,-0.0344,-0.0281,-0.0267,-0.0161,-0.0191,-0.0138,-0.0095,-0.0091,-0.0085,-0.0081,-0.0071,-0.0048,-0.0049,-0.005,-0.0051,-0.0052,0,-0.0462,-0.0483,-0.0509,-0.0512,-0.0517,-0.0525,-0.0524,-0.0496,-0.0489,-0.0444,-0.0431,-0.0353,-0.0318,-0.0237,-0.0147,-0.0154,-0.0035,-0.0031,0.0016,0.0016,0.0009,0.0005,0.0047,0.0047,0.0047,0.0047,0.0047,0,-0.0479,-0.0499,-0.0526,-0.0539,-0.0568,-0.0556,-0.0571,-0.0556,-0.0529,-0.0516,-0.0453,-0.042,-0.031,-0.023,-0.0149,-0.0044,-0.0031,0.0022,0.0039,-0.0003,-0.0009,0.0014,0.0009,0.005,0.0049,0.0048,0.0048,0,-0.0495,-0.0511,-0.0545,-0.0569,-0.0582,-0.0604,-0.0618,-0.0619,-0.059,-0.057,-0.0557,-0.0465,-0.0358,-0.0246,-0.011,-0.005,0.0052,0.0085,0.0029,0.0039,0.0076,0.0069,0.0147,0.0148,0.0148,0.0148,0.0149,0,-0.0503,-0.0525,-0.0579,-0.0608,-0.0626,-0.0657,-0.0675,-0.0659,-0.0653,-0.0592,-0.0579,-0.0477,-0.0405,-0.0211,-0.0102,0.0056,0.0074,0.0121,0.0106,0.008,0.0089,0.0081,0.0074,0.0149,0.0149,0.015,0.015,0,-0.0518,-0.0547,-0.0576,-0.0644,-0.0682,-0.0713,-0.0734,-0.0731,-0.0696,-0.0673,-0.0579,-0.0472,-0.0351,-0.0206,-0.0086,0.0026,0.0088,0.0125,0.0125,0.0111,0.0084,0.009,0.0083,0.0151,0.0151,0.0151,0.0151,0,-0.0532,-0.0563,-0.0615,-0.0669,-0.0722,-0.0751,-0.0758,-0.0734,-0.0719,-0.0641,-0.0611,-0.047,-0.0387,-0.0221,-0.0109,-0.0002,0.0023,0.005,0.0055,0.0055,0.0001,-0.0049,-0.0001,0,0,0,0,0,-0.0539,-0.0578,-0.0634,-0.0692,-0.0744,-0.077,-0.0787,-0.0778,-0.0743,-0.0679,-0.0639,-0.0519,-0.0333,-0.0251,-0.0142,-0.0118,0.0025,0.001,0.0054,0.0158,0.0157,0.0109,0,0,0,0,0,0,-0.0545,-0.0602,-0.0633,-0.07,-0.0738,-0.0786,-0.0793,-0.077,-0.0722,-0.0672,-0.0568,-0.0503,-0.0323,-0.0392,-0.0143,-0.0111,-0.0071,0.01,0.0102,0.0159,0.0158,0.0156,0.0107,0,0,0,0,0]}]]